Regional Weather Roundup
Issued by NWS Upton, NY

Current Version | Previous Version | Graphics & Text | Print | Product List | Glossary Off
Versions: 1 2 3 4 5 6 7 8 9 10 11 12 13 14 15 16 17 18 19 20 21 22 23 24 25 26 27

000
ASUS41 KOKX 241404
RWROKX

REGIONAL WEATHER ROUNDUP
NATIONAL WEATHER SERVICE NEW YORK NY
1000 AM EDT SUN JUL 24 2016

NOTE: "FAIR" INDICATES FEW OR NO CLOUDS BELOW 12,000 FEET WITH NO
SIGNIFICANT WEATHER AND/OR OBSTRUCTIONS TO VISIBILITY.

NYZ071-072-176-178-NJZ106-104-241500-
NEW YORK CITY METRO AREA

CITY           SKY/WX    TMP DP  RH WIND       PRES   REMARKS
Central Park   MOSUNNY   81  62  52 W7        30.02R
LaGuardia APRT MOSUNNY   84  61  45 NW7       29.98S
Kennedy INTL   PTSUNNY   86  59  39 N7        29.99S
Newark/Liberty MOSUNNY   86  60  41 NW3       29.98F
BRNX BOT. GARD   N/A     82  61  47 NW3       30.02R
Wall St Helipt SUNNY     84  61  45 SW5       29.99F
Teterboro      SUNNY     84  60  44 W6        29.97F
$$

NYZ177-179-078>081-241500-
LONG ISLAND NEW YORK

CITY           SKY/WX    TMP DP  RH WIND       PRES   REMARKS
FARMINGDALE    PTSUNNY   82  62  50 NE7       29.99R
ISLIP          PTSUNNY   82  62  50 NE6       29.98R
SHIRLEY        MOSUNNY   82  60  47 N7        29.98S
RIVERHEAD      NOT AVBL
WESTHAMPTON    MOSUNNY   81  59  47 N9        29.99S
SOUTHAMPTON      N/A     81  64  57 N5        29.94R
BRIDGEHAMPTON    N/A     77  64  65 CALM      29.96S
EAST HAMPTON   FAIR      78  61  56 N7        29.96S
MONTAUK POINT    N/A     76  64  66 N5        29.97F
$$

NYZ052-065-067-241500-
HUDSON VALLEY

CITY           SKY/WX    TMP DP  RH WIND       PRES   REMARKS
WHITE PLAINS   MOSUNNY   81  61  50 W7        30.00R
NEWBURGH       SUNNY     77  64  65 CALM      30.02F
MONTGOMERY     SUNNY     81  63  54 VRB3      30.00F
POUGHKEEPSIE   MOSUNNY   80  63  55 W3        29.98F
ALBANY         PTSUNNY   72  63  73 NE7       30.02S
$$

NJZ001-105-106-008-010-013-015-019>022-104-241500-
NEW JERSEY

CITY           SKY/WX    TMP DP  RH WIND       PRES   REMARKS
NEWARK/LIBERTY MOSUNNY   86  60  41 NW3       29.98F
TETERBORO      SUNNY     84  60  44 W6        29.97F
CALDWELL       SUNNY     83  61  47 CALM      30.00S
MORRISTOWN     MOSUNNY   82  63  51 CALM      30.00S
SOMERVILLE     SUNNY     83  61  47 N5        29.98F
SUSSEX         SUNNY     81  64  56 E5        30.01F
ANDOVER          N/A     78  63  59 VRB3      30.03S
TRENTON        SUNNY     83  62  49 N5        29.99S
MILLVILLE      SUNNY     85  65  51 E3        29.99R
ATLANTIC CITY  SUNNY     83  68  60 NE5       29.99R
WRIGHTSTOWN    NOT AVBL
TOMS RIVER     MOSUNNY   86  64  47 VRB5      30.00S
BELMAR         SUNNY     85  62  46 VRB3      30.00S
$$

PAZ047>061-062-071-241500-
EASTERN PENNSYLVANIA

CITY           SKY/WX    TMP DP  RH WIND       PRES   REMARKS
PHILADELPHIA   MOSUNNY   87  61  41 VRB5      30.00R
ALLENTOWN      SUNNY     83  60  45 CALM      30.01F
SCRANTON       SUNNY     80  60  50 VRB5      30.04S
$$

CTZ002-004>006-009-010-012-RIZ004-006-007-MAZ004-011-015-241500-
SOUTHERN NEW ENGLAND
 IN CT

CITY           SKY/WX    TMP DP  RH WIND       PRES   REMARKS
BRADLEY INTL   MOSUNNY   83  61  47 NW8       29.96F
HARTFORD       SUNNY     82  62  50 N8        29.96F
DANBURY        MOSUNNY   81  58  45 NW9       30.01R
WTRBRY/OXFORD  NOT AVBL
BRIDGEPORT     MOSUNNY   82  61  48 N6        29.97S
MERIDEN        SUNNY     83  60  45 N6        29.97F
NEW HAVEN      SUNNY     81  61  50 NW10      29.97S
CHESTER        FAIR      79  59  50 N9        29.98S
GROTON         SUNNY     82  62  50 N12       29.95S
WILLIMANTIC    NOT AVBL

 IN RI

CITY           SKY/WX    TMP DP  RH WIND       PRES   REMARKS
PROVIDENCE     MOSUNNY   80  60  50 N9        29.95S
BLOCK ISLAND   SUNNY     77  64  64 VRB5      29.96S
WESTERLY       SUNNY     82  59  45 N8        29.96S

 IN MA

CITY           SKY/WX    TMP DP  RH WIND       PRES   REMARKS
BOSTON         MOSUNNY   81  58  45 NW8       29.93S
WORCESTER      SUNNY     74  58  57 W12       29.99S
WESTFIELD      SUNNY     81  59  47 NW9       29.97F
PROVINCETOWN   SUNNY     72  65  78 NW9       29.94S
NANTUCKET      SUNNY     75  63  66 N10       29.94R
$$

ANZ330-335-338-340-345-350-353-355-241500-
COASTAL MARINE OBSERVATIONS


STATION/POSITION TIME  SKY/WX   TEMP    WIND        PRES    VSBY  WAVE
                                AIR SEA DIR/SP/G                  HT/PER
                 (UTC)          (F)     (DEG/KT/KT) (MB)    (MI)  (FT/S)
NY HARB ENTRANCE 1250            74 73  330/  4/  4 1015.1          2/ 6
20S FIRE ISLAND  1250            74 73   10/  8/ 10 1014.6          3/ 6
GREAT SOUTH BAY  1315            78 80   30/  2/  8   N/A
23 SSW MONTAUK P 1250            72 71  330/  6/  6 1015.0          2/ 6
15 E BARNEGAT LI 1322               76                N/A           2/ 5
HUDSON CANYON    1250            78 77              1014.7          3/ 6
KINGS POINT      1300            78 74              1015.3
EXECUTION ROCKS  1300            77     130/  4/  4   N/A
CENTRAL LI SOUND 1315            75 74  360/  6/  8   N/A           1
EASTERN LI SOUND 1300            74 68  350/  6/ 10   N/A
ROBBINS REEF     1300            82        CALM     1014.9
$$


>>>>>>>>>>>>>>>>>>>>>>>>>>>> KEY <<<<<<<<<<<<<<<<<<<<<<<<<<<
>                                                          <
>     SKY/WX - SKY CONDITION/PRESENT WEATHER               <
>     TMP    - TEMPERATURE IN FAHRENHEIT                   <
>     DP     - DEWPOINT IN FAHRENHEIT                      <
>     RH     - RELATIVE HUMIDITY IN PERCENT                <
>     WIND   - DIRECTION AND SPEED IN MPH                  <
>     PRES   - MEAN SEA LEVEL PRESSURE IN INCHES OF HG     <
>     WCI    - WIND CHILL INDEX                            <
>     VSB    - VISIBILITY IN MILES                         <
>     HX     - HEAT INDEX                                  <
>     TC     - TEMPERATURE IN CELSIUS                      <
>     VRB    - VARIABLE WIND DIRECTION                     <
>                                                          <
>>>>>>>>>>>>>>>>>>>>>>>>>>>> KEY <<<<<<<<<<<<<<<<<<<<<<<<<<<






USA.gov is the U.S. government's official web portal to all federal, state and local government web resources and services.